Regional Weather Roundup
Issued by NWS

Home | Current Version | Previous Version | Graphics & Text | Print | Product List | Glossary On
Versions: 1 2 3 4 5 6 7 8 9 10 11 12 13 14 15 16 17 18 19 20 21 22 23 24 25 26 27 28 29 30 31 32 33 34 35 36 37 38 39 40 41 42 43 44 45 46 47 48 49 50
423
ASUS45 KBOI 301810
RWRID

IDAHO REGIONAL WEATHER ROUNDUP
NATIONAL WEATHER SERVICE BOISE ID
1200 PM MDT SAT APR 30 2016

NOTE: "FAIR" INDICATES FEW OR NO CLOUDS BELOW 12000 FEET
WITH NO SIGNIFICANT WEATHER AND/OR OBSTRUCTIONS TO VISIBILITY

IDZ012-014-301900-
SOUTHWEST IDAHO


CITY           SKY/WX    TMP DP  RH WIND       PRES   REMARKS
BOISE          SUNNY     62  35  36 NW21G28   30.04F
CALDWELL       MOSUNNY   61  41  47 NW15      30.08F
MOUNTAIN HOME  MOSUNNY   60  35  38 N9        30.05S
$$

IDZ016-017-301900-
SOUTHCENTRAL IDAHO


CITY           SKY/WX    TMP DP  RH WIND       PRES   REMARKS
BURLEY         CLOUDY    46  40  79 W6        30.06S
JEROME         CLOUDY    47  40  76 SW7       30.07S
TWIN FALLS     CLOUDY    48  38  68 W8        30.07S
$$

IDZ019>023-301900-
SOUTHEAST IDAHO


CITY           SKY/WX    TMP DP  RH WIND       PRES   REMARKS
IDAHO FALLS    MOSUNNY   54  33  45 NE15G21   30.03S
POCATELLO      CLOUDY    50  39  66 NE9       30.04S
REXBURG        CLOUDY    53  31  42 E6        30.02S
$$

IDZ006-010-011-018-031-032-301900-
CENTRAL IDAHO MOUNTAINS


CITY           SKY/WX    TMP DP  RH WIND       PRES   REMARKS
MCCALL         SUNNY     49  31  49 N17       30.10S
HAILEY         PTSUNNY   50  32  50 SE5       30.06R
STANLEY          N/A     48  27  44 NW9       30.09S
SALMON         CLOUDY    48  32  53 N6        30.12R
CHALLIS        CLOUDY    54  30  40 N7        30.07F
$$

IDZ002-004-006-007-026-301900-
NORTHERN IDAHO


CITY           SKY/WX    TMP DP  RH WIND       PRES   REMARKS
LEWISTON       CLOUDY    53  45  74 E3        30.23R
LOWELL           N/A     57  40  52 CALM      30.20S
COEUR D`ALENE  PTSUNNY   54  43  66 NE6       30.20S
MULLAN PASS    PTSUNNY   39  33  79 CALM      30.19S
$$




USA.gov is the U.S. government's official web portal to all federal, state and local government web resources and services.